Weather History for Heraklion, Greece

Change the Weather History Date:

Saturday, February 2, 2013

  Actual Average Record
Temperature  
Mean Temperature 56 °F -  
Max Temperature 65 °F 60 °F 66 °F (2009)
Min Temperature 47 °F 48 °F 39 °F (2012)
Degree Days  
Heating Degree Days 9    
Growing Degree Days 6 (Base 50)    
Moisture  
Dew Point 50 °F    
Average Humidity 73    
Maximum Humidity 88    
Minimum Humidity 60    
Precipitation  
Precipitation 0.00 in 0.10 in - ()
Sea Level Pressure  
Sea Level Pressure 29.93 in    
Wind  
Wind Speed 10 mph ()    
Max Wind Speed 26 mph    
Max Gust Speed -    
Visibility 6.5 miles    
Events      
Averages and records for this station are not official NWS values.
T = Trace of Precipitation, MM = Missing Value Source: Averaged Metar Reports

Daily Weather History Graph

Daily Weather History Graph

Search for Another Location

Airport:

Trip Planner

Search our weather history database for the weather conditions in past years. The results will help you decide how hot, cold, wet, or windy it might be!

Date:

Astronomy

Feb. 02, 2013 Rise Set
Actual Time 7:17 AM EET 5:48 PM EET
Civil Twilight 6:51 AM EET 6:15 PM EET
Nautical Twilight 6:20 AM EET 6:45 PM EET
Astronomical Twilight 5:51 AM EET 7:15 PM EET
Moon No Moon Rise 10:32 AM EET (2/2)
Length of Visible Light 11h 23m
Length of Day
10h 30m
Waning Gibbous, 63% of the Moon is Illuminated
Feb 2
Waning Gibbous
Feb 3
Last Quarter
Feb 10
New
Feb 17
First Quarter
Feb 25
Full

Hourly Weather History & Observations

Time (EET) Temp. Dew Point Humidity Pressure Visibility Wind Dir Wind Speed Gust Speed Precip Events Conditions
12:20 AM 48.2 °F 41.0 °F 76% 30.01 in 6.2 mi South 9.2 mph - N/A   Partly Cloudy
12:50 AM 50.0 °F 42.8 °F 76% 29.98 in 6.2 mi South 10.4 mph - N/A   Partly Cloudy
1:20 AM 50.0 °F 42.8 °F 76% 29.98 in 6.2 mi SSE 11.5 mph - N/A   Partly Cloudy
1:50 AM 51.8 °F 42.8 °F 71% 29.98 in 6.2 mi SSE 10.4 mph - N/A   Partly Cloudy
2:00 AM 52 °F 42 °F 60% 29.98 in 9 mi SSE 10.4 mph - -   Scattered Clouds
2:20 AM 51.8 °F 42.8 °F 71% 29.98 in 6.2 mi South 12.7 mph - N/A   Partly Cloudy
2:50 AM 51.8 °F 42.8 °F 71% 29.95 in 6.2 mi SSE 10.4 mph - N/A   Partly Cloudy
3:20 AM 51.8 °F 42.8 °F 71% 29.95 in 6.2 mi SSE 11.5 mph - N/A   Partly Cloudy
3:50 AM 51.8 °F 42.8 °F 71% 29.95 in 6.2 mi SSE 13.8 mph - N/A   Partly Cloudy
4:50 AM 51.8 °F 44.6 °F 76% 29.92 in 6.2 mi SSE 13.8 mph - N/A   Partly Cloudy
5:20 AM 51.8 °F 44.6 °F 76% 29.92 in 6.2 mi South 13.8 mph - N/A   Partly Cloudy
5:50 AM 51.8 °F 44.6 °F 76% 29.92 in 6.2 mi South 12.7 mph - N/A   Partly Cloudy
6:20 AM 51.8 °F 44.6 °F 76% 29.92 in 6.2 mi South 13.8 mph - N/A   Partly Cloudy
6:50 AM 55.4 °F 50.0 °F 82% 29.92 in 6.2 mi South 10.4 mph - N/A   Partly Cloudy
7:20 AM 53.6 °F 50.0 °F 88% 29.92 in 6.2 mi WSW 8.1 mph - N/A   Partly Cloudy
7:50 AM 55.4 °F 50.0 °F 82% 29.92 in 6.2 mi South 8.1 mph - N/A   Partly Cloudy
8:00 AM 55 °F 49 °F 74% 29.93 in 9 mi South 8.1 mph - -   Scattered Clouds
8:50 AM 59.0 °F 48.2 °F 67% 29.92 in 6.2 mi SSE 11.5 mph - N/A   Scattered Clouds
9:20 AM 59.0 °F 48.2 °F 67% 29.92 in 6.2 mi SSE 8.1 mph - N/A   Scattered Clouds
9:50 AM 62.6 °F 51.8 °F 68% 29.92 in 6.2 mi East 5.8 mph - N/A   Scattered Clouds
10:20 AM 62.6 °F 51.8 °F 68% 29.92 in 6.2 mi East 5.8 mph - N/A   Scattered Clouds
10:50 AM 64.4 °F 53.6 °F 68% 29.95 in 6.2 mi ENE 6.9 mph - N/A   Scattered Clouds
11:20 AM 64.4 °F 53.6 °F 68% 29.95 in 6.2 mi North 5.8 mph - N/A   Scattered Clouds
11:50 AM 64.4 °F 55.4 °F 73% 29.92 in 6.2 mi NNW 6.9 mph - N/A   Mostly Cloudy
12:20 PM 64.4 °F 55.4 °F 73% 29.92 in 6.2 mi NNW 8.1 mph - N/A   Mostly Cloudy
12:50 PM 64.4 °F 55.4 °F 73% 29.92 in 6.2 mi North 9.2 mph - N/A   Mostly Cloudy
1:20 PM 64.4 °F 55.4 °F 73% 29.92 in 6.2 mi NNW 5.8 mph - N/A   Mostly Cloudy
1:50 PM 64.4 °F 55.4 °F 73% 29.89 in 6.2 mi NNW 5.8 mph - N/A   Partly Cloudy
2:00 PM 65 °F 55 °F 61% 29.91 in 12 mi NNW 5.8 mph - -   Scattered Clouds
2:20 PM 64.4 °F 55.4 °F 73% 29.89 in 6.2 mi NNW 5.8 mph - N/A   Partly Cloudy
2:50 PM 66.2 °F 57.2 °F 73% 29.89 in - NNE 4.6 mph - N/A   Clear
4:50 PM 64.4 °F 53.6 °F 68% 29.89 in 6.2 mi WNW 10.4 mph - N/A   Partly Cloudy
5:20 PM 62.6 °F 53.6 °F 72% 29.92 in 6.2 mi South 8.1 mph - N/A   Partly Cloudy
6:20 PM 59.0 °F 51.8 °F 77% 29.92 in 6.2 mi South 8.1 mph - N/A   Partly Cloudy
6:50 PM 59.0 °F 51.8 °F 77% 29.95 in 6.2 mi South 8.1 mph - N/A   Partly Cloudy
7:50 PM 57.2 °F 51.8 °F 82% 29.89 in 6.2 mi South 10.4 mph - N/A   Partly Cloudy
8:00 PM 58 °F 51 °F 71% 29.91 in 6 mi South 10.4 mph - -   Scattered Clouds
8:50 PM 57.2 °F 50.0 °F 77% 29.92 in 6.2 mi South 12.7 mph - N/A   Partly Cloudy
9:20 PM 57.2 °F 51.8 °F 82% 29.92 in 6.2 mi South 15.0 mph - N/A   Partly Cloudy
9:50 PM 57.2 °F 51.8 °F 82% 29.92 in 6.2 mi South 15.0 mph - N/A   Partly Cloudy
10:20 PM 59.0 °F 50.0 °F 72% 29.95 in 6.2 mi South 25.3 mph - N/A   Partly Cloudy
10:50 PM 59.0 °F 50.0 °F 72% 29.92 in 6.2 mi South 24.2 mph - N/A   Partly Cloudy
11:20 PM 59.0 °F 50.0 °F 72% 29.92 in 6.2 mi South 26.5 mph - N/A   Partly Cloudy
11:50 PM 59.0 °F 50.0 °F 72% 29.92 in - South 21.9 mph - N/A   Clear